TimePDT,TemperatureF,Dew PointF,Humidity,Sea Level PressureIn,VisibilityMPH,Wind Direction,Wind SpeedMPH,Gust SpeedMPH,PrecipitationIn,Events,Conditions,WindDirDegrees,DateUTC
12:53 AM,43.0,39.0,86,30.34,10.0,North,3.5,-,N/A,,Partly Cloudy,10,2012-10-26 07:53:00
1:53 AM,44.1,39.0,82,30.32,10.0,NNE,6.9,-,N/A,,Mostly Cloudy,20,2012-10-26 08:53:00
2:53 AM,44.1,37.9,79,30.31,10.0,North,5.8,-,N/A,,Overcast,10,2012-10-26 09:53:00
3:53 AM,45.0,37.9,76,30.28,10.0,North,8.1,-,N/A,,Overcast,10,2012-10-26 10:53:00
4:53 AM,45.0,37.0,74,30.25,10.0,North,4.6,-,N/A,,Overcast,10,2012-10-26 11:53:00
5:53 AM,46.0,37.0,71,30.23,10.0,North,5.8,-,N/A,,Overcast,10,2012-10-26 12:53:00
6:53 AM,45.0,37.0,74,30.21,10.0,North,5.8,-,N/A,,Overcast,10,2012-10-26 13:53:00
7:53 AM,46.0,37.0,71,30.19,10.0,NNE,9.2,-,N/A,,Overcast,20,2012-10-26 14:53:00
8:53 AM,45.0,37.9,76,30.18,10.0,NNE,11.5,-,0.00,,Overcast,20,2012-10-26 15:53:00
9:53 AM,45.0,39.0,80,30.19,10.0,NNE,11.5,-,0.00,Rain,Light Rain,20,2012-10-26 16:53:00
10:53 AM,45.0,41.0,86,30.21,7.0,NNE,9.2,-,0.02,Rain,Light Rain,30,2012-10-26 17:53:00
11:53 AM,45.0,42.1,90,30.19,7.0,ENE,4.6,-,0.03,Rain,Light Rain,60,2012-10-26 18:53:00
12:53 PM,46.9,44.1,90,30.17,10.0,NE,3.5,-,0.01,,Overcast,50,2012-10-26 19:53:00
1:53 PM,48.0,41.0,77,30.15,10.0,Calm,Calm,-,0.00,Rain,Light Rain,0,2012-10-26 20:53:00
2:53 PM,46.0,43.0,89,30.15,5.0,NE,5.8,-,0.04,Rain,Light Rain,40,2012-10-26 21:53:00
3:53 PM,46.9,43.0,86,30.12,10.0,NNE,4.6,-,0.02,Rain,Light Rain,30,2012-10-26 22:53:00
4:53 PM,46.0,43.0,89,30.11,6.0,NNE,4.6,-,0.04,Rain,Rain,20,2012-10-26 23:53:00
5:53 PM,45.0,43.0,93,30.10,6.0,North,5.8,-,0.01,Rain,Light Rain,10,2012-10-27 00:53:00
6:53 PM,45.0,43.0,93,30.08,10.0,North,4.6,-,0.00,Rain,Light Rain,10,2012-10-27 01:53:00
7:10 PM,44.6,42.8,93,30.06,9.0,NNE,5.8,-,N/A,Rain,Light Rain,30,2012-10-27 02:10:00
7:53 PM,45.0,43.0,93,30.09,4.0,NNW,3.5,-,0.04,Rain,Light Rain,340,2012-10-27 02:53:00
8:53 PM,44.1,43.0,96,30.07,5.0,Calm,Calm,-,0.03,Rain,Light Rain,0,2012-10-27 03:53:00
9:40 PM,44.6,42.8,93,30.04,5.0,North,4.6,-,0.01,,Overcast,10,2012-10-27 04:40:00
9:53 PM,44.1,43.0,96,30.06,5.0,North,5.8,-,0.01,,Overcast,10,2012-10-27 04:53:00
10:06 PM,44.6,42.8,93,30.04,4.0,North,4.6,-,0.00,Rain,Light Rain,10,2012-10-27 05:06:00
10:17 PM,44.6,42.8,93,30.03,2.5,NNE,5.8,-,0.01,Rain,Light Rain,30,2012-10-27 05:17:00
10:28 PM,44.6,42.8,93,30.03,3.0,North,4.6,-,0.02,Rain,Light Rain,350,2012-10-27 05:28:00
10:53 PM,44.1,42.1,93,30.05,5.0,North,4.6,-,0.02,Rain,Light Rain,10,2012-10-27 05:53:00
11:53 PM,44.1,43.0,96,30.04,4.0,North,4.6,-,0.02,Rain,Light Rain,360,2012-10-27 06:53:00